Volver al catálogo

STARLINK-11445

ActivoComunicacionesVLEO
NORAD 62414·PAYLOAD·🇺🇸 United States

Lanzado Dec 23, 2024 desde Cape Canaveral Space Force Station

Loading…

Próximos Pases (próximas 24 horas)

TLE

ActualizadoSource: CelesTrak SupGP

Época: Sep 14, 2026, 20:41 UTC

1 62414C 24249F   26257.86229167 -.00053439  00000+0 -41516-3 0  2573
2 62414  43.0004 107.2484 0001627 262.7537 114.7486 15.70859008    19

Sigue STARLINK-11445 en tiempo real con AllMySat

Download on the App Store